星链-35788(STARLINK-35788)

导读 | 豆包AI

STARLINK-35788是美国于2025年12月31日发射的星链卫星,隶属于SpaceX公司星链互联网星座。星链旨在为全球提供低延迟、高速率的卫星宽带服务,该卫星加入星座后,将进一步扩容全球卫星互联网覆盖能力,助力推动偏远地区网络连通、移动网络补充等应用落地。

基本信息
目录编号:
66831
目录名称:
STARLINK-35788
国际标识:
2025-280L
轨道中心:
EARTH
卫星名称:
星链-35788
卫星全名:
星链-35788(STARLINK-35788)
卫星状态:
在轨 (已飞行148 天)
发射日期:
2025-12-02 UTC
国别 :
美国 (US)
星等 :
--
轨道信息
数据来源 国际轨道数据
星历时间: 2026-04-28T22:07:08+0800
13小时前
查看轨道信息
半长轴: 6950.185km
偏心率: 0.0003638
轨道倾角: 70.003°
近地点辐角 268.998°
升交点赤经 208.503°
平近点角 91.077°
近地点: 569.519km
远地点: 574.577km
周期: 96.107分钟
每日圈数: 14.983327
详细信息
固有亮度:
5
最大亮度:
2.5
卫星平台:
Starlink V1.0
覆盖范围:
全球
运营商:
太空探索技术公司
运营商所在国:
美国
制造商(研发单位):
太空探索技术公司
制造商所在国:
美国
使用方式:
暂无
卫星简介
Starlink 计划是 SpaceX 推出的全球卫星互联网项目,通过发射低轨道卫星,为全球尤其是偏远地区提供高速、低延迟的互联网服务。自 2019 年起,Starlink 已部署数千颗卫星,旨在缩小全球数字鸿沟,推动互联网普及。该项目还为军事、航空等行业提供通信支持,带来广泛经济效益。
2D轨道图
3D轨道图
轨道高度分析图
轨道倾角分析图
轨道综合分析图
查看轨道综合分析图